Flag for U.S.A. Weather past 2 weeks in Escondido, California, U.S.A.

Now
64 °F

Fog.


Feels Like: 64 °F
Forecast: 67 / 84 °F
Wind: No wind

Location: Ramona Airport

Current Time: Jul 31, 2015 at 7:12:15 AM

Latest Report: Jul 31, 2015 at 6:53 AM


Visibility: 4 mi

Pressure: 30.01 "Hg

Humidity: 97%

Dew point: 63 °F

Location of EscondidoLocation

Historic Weather in Escondido — Graph

°F

Escondido temperature yesterday

Maximum temperature yesterday: 91 °F (at 3:53 PM)
Minimum temperature yesterday: 66 °F (at 5:53 AM)
Average temperature yesterday: 76 °F

Past Weeks' High & Low Weather Summary

 TemperatureHumidityPressure
High92 °F (Jul 17, 12:53 PM)100% (Jul 24, 6:53 AM)30.09 "Hg (Jul 24, 6:53 AM)
Low56 °F (Jul 17, 4:53 AM)26% (Jul 25, 11:53 AM)29.79 "Hg (Jul 17, 3:53 PM)
Average72 °F71%29.93 "Hg
* Reported Jul 16 5:53 AM — Jul 31 5:53 AM, Escondido, Weather by CustomWeather, © 2015

Note: Actual official high and low records may vary slightly from our data, if they occured in-between our weather recording intervals... More about our weather records

Advertising

Escondido weather history for previous 24 hours

 ConditionsComfort  
Time TempWeatherWind HumidityBarometerVisibility
5:53 AM
Fri, Jul 31
64 °FFog.No wind97%29.99 "Hg1 mi
4:53 AM64 °FFog.No wind97%29.98 "Hg1 mi
4:00 AM64 °FFog.No wind97%30.04 "Hg1 mi
2:53 AM64 °FFog.6 mph97%29.99 "Hg2 mi
1:53 AM64 °FPassing clouds.3 mph94%29.99 "Hg7 mi
12:53 AM65 °FClear.6 mph91%30.01 "Hg9 mi
11:53 PM
Thu, Jul 30
67 °FClear.5 mph87%30.02 "Hg10 mi
10:53 PM68 °FClear.7 mph84%30.01 "Hg10 mi
9:53 PM70 °FClear.5 mph79%30.00 "Hg10 mi
8:53 PM73 °FPassing clouds.8 mph71%29.98 "Hg10 mi
7:53 PM74 °FSunny.8 mph69%29.98 "Hg10 mi
6:53 PM79 °FSunny.13 mph58%29.96 "Hg10 mi
5:53 PM84 °FSunny.13 mph51%29.94 "Hg10 mi
4:53 PM87 °FSunny.12 mph46%29.94 "Hg10 mi
3:53 PM91 °FSunny.13 mph42%29.95 "Hg10 mi
2:53 PM90 °FPassing clouds.13 mph45%29.94 "Hg10 mi
1:53 PM90 °FScattered clouds.10 mph47%29.96 "Hg10 mi
12:53 PM86 °FPassing clouds.5 mph51%29.98 "Hg10 mi
11:53 AM81 °FPartly sunny.3 mph58%30.00 "Hg10 mi
10:53 AM81 °FScattered clouds.8 mph56%29.99 "Hg10 mi
9:53 AM80 °FPassing clouds.5 mph58%29.99 "Hg10 mi
8:53 AM76 °FPassing clouds.7 mph67%29.99 "Hg10 mi
7:53 AM71 °FSunny.No wind76%29.99 "Hg10 mi
Weather by CustomWeather, © 2015

See weather overviewHow to use our weather pages